Pagina principale
METAR-TAF:

METAR-TAF

Aeroporti :

Aeroporto di Piacenza-San Damiano

Piacenza, Italia

latitudine: 44-55N, longitudine: 009-44E, altezza: 134 m

Osservazione

Il bollettino è stato emesso 1 ora e 13 minuti fa, alle 13:55 UTC
Vento 4 kt da sud-est, variando fra est e sud/sud-ovest
Temperature 29°C
Umidità 45%
Pressione 1012 hPa
Visibilità 10 km o più
nessuna nube inferiore a 1500 m e nessun cumulonembo

METAR: LIMS 131355Z 14004KT 100V210 CAVOK 29/16 Q1012 RMK SKC VIS MIN 9999 WIND THR30 13004KT BLU

Ora: 17:08 (15:08 UTC)


TAF: mancante

Osservazioni e previsioni meteorologiche di più di 4000 aeroporti (messaggi METAR e TAF).

Le stazioni disponibili sono rappresentate dai dischi gialli e rossi sulla carta.

Puntare il mouse per vedere il nome della stazione.

Clicca sopra per visualizzare le osservazioni e previsioni meteorologiche.

Per cambiare la mappa : fare clic sui pulsanti verdi con una croce nera per ingrandire, il pulsante verde con un trattino per diminuire, o sulla freccia verde per le mappe adiacenti.


METAR-TAF: